Flag for Burundi Weather past 2 weeks in Muyinga, Burundi

Now
88 °F

Pleasantly warm.


Feels Like: 85 °F
Forecast: 58 / 79 °F
Wind: 6 mph from Northeast

Location: Kigali Airport

Current Time: Jan 27, 2015 at 4:41:15 PM

Latest Report: Jan 27, 2015 at 4:00 PM


Visibility: N/A

Pressure: 29.98 "Hg

Humidity: 29%

Dew point: 52 °F

Location of MuyingaLocation

Historic Weather in Muyinga — Graph

°F

Muyinga temperature yesterday

Maximum temperature yesterday: 82 °F (at 2:00 PM)
Minimum temperature yesterday: 59 °F (at 5:30 AM)
Average temperature yesterday: 69 °F

Past Weeks' High & Low Weather Summary

 TemperatureHumidityPressure
High88 °F (Jan 14, 1:00 PM)100% (Jan 13, 1:30 AM)30.24 "Hg (Jan 13, 1:30 AM)
Low59 °F (Jan 23, 3:30 AM)29% (Jan 17, 2:30 PM)29.98 "Hg (Jan 17, 3:00 PM)
Average71 °F76%30.11 "Hg
* Reported Jan 12 3:00 PM — Jan 27 3:30 PM, Muyinga, Weather by CustomWeather, © 2014

Note: Actual official high and low records may vary slightly from our data, if they occured in-between our weather recording intervals... More about our weather records

Advertising

Muyinga weather history for previous 24 hours

 ConditionsComfort  
Time TempWeatherWind HumidityBarometerVisibility
3:30 PM
Jan 27
88 °FPleasantly warm.3 mph33%30.01 "HgN/A
3:00 PM86 °FPleasantly warm.10 mph35%30.01 "HgN/A
2:00 PM86 °FPleasantly warm.8 mph33%30.04 "HgN/A
1:30 PM86 °FWarm.7 mph40%30.07 "HgN/A
1:00 PM84 °FPleasantly warm.5 mph37%30.07 "HgN/A
12:30 PM86 °FPleasantly warm.3 mph38%30.09 "HgN/A
11:30 AM81 °FWarm.7 mph51%30.12 "HgN/A
11:00 AM81 °FWarm.3 mph54%30.12 "HgN/A
10:00 AM79 °FWarm.3 mph61%30.15 "HgN/A
9:30 AM77 °FWarm.3 mph69%30.15 "HgN/A
9:00 AM73 °FMild.No wind78%30.15 "HgN/A
8:30 AM72 °FMild.No wind83%30.15 "HgN/A
8:00 AM68 °FMild.No wind94%30.15 "HgN/A
7:30 AM64 °FPassing clouds.No wind100%30.12 "Hg5 mi
7:00 AM63 °FPassing clouds.No wind100%30.12 "Hg5 mi
6:30 AM61 °FPassing clouds.No wind100%30.12 "Hg5 mi
6:00 AM63 °FPassing clouds.No wind100%30.12 "Hg5 mi
5:30 AM63 °FPassing clouds.No wind100%30.12 "Hg5 mi
5:00 AM63 °FPassing clouds.No wind100%30.12 "Hg5 mi
4:30 AM63 °FPassing clouds.No wind100%30.12 "Hg5 mi
4:00 AM63 °FPassing clouds.No wind100%30.09 "Hg5 mi
3:30 AM64 °FPassing clouds.No wind100%30.09 "Hg5 mi
3:00 AM64 °FPassing clouds.No wind100%30.09 "HgN/A
2:30 AM64 °FPassing clouds.No wind100%30.09 "HgN/A
2:00 AM64 °FPassing clouds.3 mph100%30.12 "HgN/A
1:30 AM66 °FPassing clouds.No wind94%30.12 "HgN/A
1:00 AM66 °FPassing clouds.No wind100%30.15 "HgN/A
12:30 AM64 °FPassing clouds.No wind100%30.15 "HgN/A
11:30 PM
Jan 26
66 °FPassing clouds.No wind94%30.15 "HgN/A
11:00 PM66 °FPassing clouds.3 mph94%30.15 "HgN/A
10:30 PM66 °FPassing clouds.3 mph94%30.15 "HgN/A
10:00 PM66 °FPassing clouds.3 mph94%30.12 "HgN/A
9:30 PM68 °FPassing clouds.No wind88%30.12 "HgN/A
9:00 PM68 °FPassing clouds.No wind88%30.12 "HgN/A
8:30 PM68 °FPassing clouds.No wind88%30.12 "HgN/A
8:00 PM70 °FPassing clouds.No wind83%30.12 "HgN/A
7:30 PM70 °FMild.3 mph88%30.09 "HgN/A
7:00 PM72 °FMild.5 mph83%30.09 "HgN/A
6:30 PM72 °FMild.8 mph78%30.09 "HgN/A
6:00 PM73 °FLight rain. Scattered clouds.12 mph78%30.09 "HgN/A
5:00 PM81 °FScattered clouds.7 mph51%30.04 "HgN/A
4:30 PM82 °FScattered clouds.6 mph48%30.04 "HgN/A
4:00 PM82 °FScattered clouds.8 mph48%30.04 "HgN/A
Weather by CustomWeather, © 2014

See weather overviewHow to use our weather pages